Weather History for KCHO - May, 2012

Change the Weather History Date:

Sunday, May 13, 2012

  Actual Average Record
Temperature  
Mean Temperature 71 °F 62 °F  
Max Temperature 82 °F 74 °F 91 °F (1953)
Min Temperature 60 °F 51 °F 38 °F (2013)
Degree Days  
Heating Degree Days 0 4  
Month to date heating degree days 6 72  
Since 1 July heating degree days 3308 4384  
Cooling Degree Days 6 2  
Month to date cooling degree days 71 17  
Year to date cooling degree days 111 38  
Growing Degree Days 20 (Base 50)    
Moisture  
Dew Point 54 °F    
Average Humidity 56    
Maximum Humidity 72    
Minimum Humidity 39    
Precipitation  
Precipitation T in 0.13 in 0.16 in (2014)
Month to date precipitation 1.13 1.50  
Year to date precipitation 11.14 13.99  
Sea Level Pressure  
Sea Level Pressure 30.16 in    
Wind  
Wind Speed 8 mph (SSW)    
Max Wind Speed 18 mph    
Max Gust Speed 24 mph    
Visibility 10 miles    
Events Rain    
T = Trace of Precipitation, MM = Missing Value Source: NWS Daily Summary

Daily Weather History Graph

Daily Weather History Graph

Search for Another Location

Airport or City:

Trip Planner

Search our weather history database for the weather conditions in past years. The results will help you decide how hot, cold, wet, or windy it might be!

Date:

Astronomy

May. 13, 2012 Rise Set
Actual Time 6:04 AM EDT 8:16 PM EDT
Civil Twilight 5:35 AM EDT 8:45 PM EDT
Nautical Twilight 4:58 AM EDT 9:22 PM EDT
Astronomical Twilight 4:19 AM EDT 10:01 PM EDT
Moon 2:02 AM EDT (5/13) 1:41 PM EDT (5/13)
Length of Visible Light 15h 10m
Length of Day
14h 11m
Last Quarter, 42% of the Moon is Illuminated
May 13
Last Quarter
May 20
New
May 28
First Quarter
Jun 4
Full
Jun 11
Last Quarter

Hourly Weather History & Observations

Time (EDT) Temp. Heat Index Dew Point Humidity Pressure Visibility Wind Dir Wind Speed Gust Speed Precip Events Conditions
12:53 AM 63.0 °F - 50.0 °F 63% 30.21 in 9.0 mi Calm Calm - N/A   Clear
1:53 AM 62.1 °F - 50.0 °F 65% 30.20 in 10.0 mi SSW 3.5 mph - N/A   Clear
2:53 AM 64.9 °F - 48.0 °F 54% 30.19 in 10.0 mi SSW 4.6 mph - N/A   Clear
3:53 AM 61.0 °F - 51.1 °F 70% 30.19 in 9.0 mi Calm Calm - N/A   Clear
4:53 AM 60.1 °F - 50.0 °F 69% 30.18 in 10.0 mi South 4.6 mph - N/A   Scattered Clouds
5:53 AM 60.1 °F - 50.0 °F 69% 30.19 in 10.0 mi SSW 6.9 mph - N/A   Clear
6:53 AM 60.1 °F - 50.0 °F 69% 30.20 in 10.0 mi South 5.8 mph - N/A   Clear
7:53 AM 63.0 °F - 51.1 °F 65% 30.21 in 10.0 mi SSW 5.8 mph - N/A   Clear
8:53 AM 66.9 °F - 53.1 °F 61% 30.20 in 10.0 mi South 4.6 mph - N/A   Clear
9:53 AM 72.0 °F - 55.9 °F 57% 30.20 in 10.0 mi SSW 8.1 mph - N/A   Clear
10:53 AM 77.0 °F - 55.0 °F 47% 30.19 in 10.0 mi Variable 6.9 mph - N/A   Clear
11:53 AM 80.1 °F 80.0 °F 54.0 °F 40% 30.17 in 10.0 mi SSW 11.5 mph - N/A   Clear
12:53 PM 80.1 °F 79.9 °F 53.1 °F 39% 30.16 in 10.0 mi SSW 12.7 mph - N/A   Clear
1:53 PM 80.1 °F 79.9 °F 53.1 °F 39% 30.14 in 10.0 mi South 16.1 mph 23.0 mph N/A   Partly Cloudy
2:53 PM 79.0 °F - 54.0 °F 42% 30.14 in 10.0 mi SSW 10.4 mph 19.6 mph N/A   Clear
3:53 PM 77.0 °F - 55.9 °F 48% 30.12 in 10.0 mi South 13.8 mph - N/A   Clear
4:53 PM 75.9 °F - 57.0 °F 52% 30.12 in 10.0 mi SSW 10.4 mph - N/A   Clear
5:53 PM 75.9 °F - 54.0 °F 46% 30.11 in 10.0 mi South 11.5 mph - N/A   Clear
6:53 PM 73.9 °F - 55.0 °F 52% 30.11 in 10.0 mi South 10.4 mph - N/A   Clear
7:53 PM 72.0 °F - 55.0 °F 55% 30.11 in 10.0 mi SSW 8.1 mph - N/A   Clear
8:53 PM 71.1 °F - 55.9 °F 59% 30.11 in 10.0 mi South 5.8 mph - N/A   Clear
9:53 PM 69.1 °F - 57.0 °F 65% 30.12 in 10.0 mi SSW 5.8 mph - N/A   Mostly Cloudy
10:53 PM 68.0 °F - 57.9 °F 70% 30.13 in 10.0 mi SSW 8.1 mph - 0.00 in   Overcast
11:53 PM 66.0 °F - 59.0 °F 78% 30.13 in 10.0 mi SSW 10.4 mph - 0.00 in Rain Light Rain